Regional Weather Roundup
Issued by NWS

Home | Current Version | Previous Version | Text Only | Print | Product List | Glossary On
Versions: 1 2 3 4 5 6 7 8 9 10 11 12 13 14 15 16 17 18 19 20 21 22 23 24 25 26 27 28 29 30 31 32 33 34 35 36 37 38 39 40 41 42 43 44 45 46 47 48 49 50
000
ASUS43 KMPX 281810
RWRMN
WEATHER ROUNDUP FOR MINNESOTA
NATIONAL WEATHER SERVICE TWIN CITIES/CHANHASSEN MN
100 PM CDT THU JUL 28 2016


NOTE: "FAIR" INDICATES FEW OR NO CLOUDS BELOW 12,000 FEET WITH NO
SIGNIFICANT WEATHER AND/OR OBSTRUCTIONS TO VISIBILITY. N/A MEANS
CURRENT SKY AND/OR WEATHER CONDITIONS ARE NOT AVAILABLE.

MNZ060>063-068>070-281900-
   Twin Cities Metro

CITY           SKY/WX    TMP DP  RH WIND       PRES   REMARKS
TWIN CITIES    CLOUDY    72  62  71 N9        30.03S
6HR MIN TEMP:  65; 6HR MAX TEMP:  72;

ST PAUL        CLOUDY    73  64  73 N10       30.03S
CRYSTAL        CLOUDY    72  60  66 N9        30.03F
BLAINE         PTSUNNY   73  64  73 NE12G17   30.04S
LAKEVILLE      CLOUDY    70  64  83 N8        30.02F
EDEN PRAIRIE   CLOUDY    70  61  73 N8        30.03S
6HR MIN TEMP:  66; 6HR MAX TEMP:  71;

LAKEVILLE      CLOUDY    70  64  83 N8        30.02F
SOUTH ST PAUL  CLOUDY    71  64  76 N7        30.02F
LAKE ELMO      CLOUDY    72  64  78 N9        30.04S
$$
MNZ001>005-007-008-013>017-022>024-027-028-281900-
   Northwest Minnesota

CITY           SKY/WX    TMP DP  RH WIND       PRES   REMARKS
BEMIDJI        PTSUNNY   73  55  53 N5        30.11F
HALLOCK        MOSUNNY   70  54  56 N6        30.14S
ROSEAU         MOSUNNY   70  57  64 N6        30.14S
WARROAD        SUNNY     70  57  64 E8        30.15S
THIEF RVR FALL MOSUNNY   71  58  63 VRB5      30.14S
CROOKSTON      SUNNY     73  59  60 N7        30.12F
FOSSTON        SUNNY     77  61  57 CALM      30.12S
DETROIT LAKES  LGT RAIN  68  63  83 W7        30.12S
MOORHEAD       MOSUNNY   75  63  64 N5        30.09F
PARK RAPIDS    MOSUNNY   78  55  44 N8        30.10S
MAHNOMEN       FAIR      75  58  53 NE7       30.10F
$$
MNZ006-009>011-018-025>026-281900-
   North Central Minnesota

CITY           SKY/WX    TMP DP  RH WIND       PRES   REMARKS
BAUDETTE       MOSUNNY   73  57  57 N8        30.12F
FLAG ISLAND    PTSUNNY   66  54  63 N6        30.13F
INTL FALLS     SUNNY     74  55  51 N7        30.12S
6HR MIN TEMP:  60; 6HR MAX TEMP:  74;

WASKISH        SUNNY     73  57  56 W7        30.12S
BIG FORK       PTSUNNY   72  54  53 CALM      30.11S
LONGVILLE      PTSUNNY   73  55  53 CALM      30.11S
GRAND RAPIDS   CLOUDY    74  56  53 CALM      30.12S
CRANE LAKE     MOSUNNY   72  57  60 N5        30.12S
ORR            MOSUNNY   75  52  43 CALM      30.09S
COOK           PTSUNNY   70  57  64 NW5       30.12R
WALKER         FAIR      73  57  56 NE5       30.11S
$$
MNZ012-019>021-037-281900-
   Northeast Minnesota

CITY           SKY/WX    TMP DP  RH WIND       PRES   REMARKS
DULUTH         CLOUDY    72  53  51 E12G20    30.11S
6HR MIN TEMP:  59; 6HR MAX TEMP:  73;

ELY            MOSUNNY   72  52  49 CALM      30.12S
HIBBING        MOSUNNY   73  53  49 NE6       30.10F
EVELETH        PTSUNNY   73  55  54 CALM      30.12S
DULUTH HARBOR  CLOUDY    66  61  82 NE17      30.10F
TWO HARBORS    CLOUDY    75  57  53 NE10      30.10R
SILVER BAY     SUNNY     70  55  60 E10       30.11S
GRAND MARAIS     N/A     68  56  65 NE8       30.12R
$$
MNZ029>031-032-039>041-046>048-054>057-064-281900-
   West Central Minnesota

CITY           SKY/WX    TMP DP  RH WIND       PRES   REMARKS
FERGUS FALLS   CLOUDY    75  57  53 E5        30.09F
WHEATON        MOSUNNY   77  64  65 E6        30.09F
MORRIS         CLOUDY    75  57  53 E7        30.08S
ALEXANDRIA     CLOUDY    74  57  55 E10       30.11S
ELBOW LAKE     FAIR      75  60  58 E5        30.10S
WADENA         CLOUDY    73  59  60 CALM      30.10S
GLENWOOD       CLOUDY    73  61  64 NE9       30.10S
APPLETON       MOSUNNY   73  57  56 E9        30.07S
BENSON         CLOUDY    75  57  53 E6        30.08S
ORTONVILLE     CLOUDY    75  59  57 CALM      30.08S
MADISON        MOSUNNY   73  61  64 NE5       30.08S
WILLMAR        FAIR      73  59  60 NE8       30.08F
$$
MNZ033>034-036-042>043-049>051-058-059-281900-
   Central Minnesota

CITY           SKY/WX    TMP DP  RH WIND       PRES   REMARKS
ST CLOUD       CLOUDY    71  57  61 E8        30.07F
6HR MIN TEMP:  59; 6HR MAX TEMP:  73;

SAUK CENTRE    FAIR      73  58  59 NE10      30.09F
PAYNESVILLE    CLOUDY    71  55  57 NE10      30.09S
AITKIN         MOSUNNY   73  52  46 N6        30.10S
PINE RIVER     MOSUNNY   72  61  68 SE5       30.13F
BRAINERD       CLOUDY    72  55  55 NE6       30.11S
STAPLES        CLOUDY    72  55  56 SE5       30.10F
LONG PRAIRIE   FAIR      70  59  68 N5        30.10S
LITTLE FALLS   PTSUNNY   70  52  52 NE3       30.10S
LITCHFIELD     CLOUDY    73  63  68 NE7       30.07S
BUFFALO        MOSUNNY   73  61  65 NE9       30.06S
MAPLE LAKE     CLOUDY    73  64  73 N7        30.07S
HUTCHINSON     SUNNY     73  62  69 N7        30.06F
$$
MNZ037-044-045-052-053-281900-
   East Central Minnesota

CITY           SKY/WX    TMP DP  RH WIND       PRES   REMARKS
PRINCETON      CLOUDY    73  59  60 NE10G16   30.07S
MORA           CLOUDY    70  59  68 NE3       30.10S
CAMBRIDGE      CLOUDY    73  57  56 N5        30.05S
RUSH CITY      CLOUDY    71  59  64 N10G16    30.06S
MOOSE LAKE     PTSUNNY   72  54  53 NE9       30.09S
HINCKLEY       FAIR      72  59  64 NE9       30.08S
CLOQUET        CLOUDY    70  52  52 E7        30.11S
MCGREGOR       MOSUNNY   72  57  60 E6        30.11S
$$
MNZ071>073-080-081-089-090-097-098-281900-
   Southwest Minnesota

CITY           SKY/WX    TMP DP  RH WIND       PRES   REMARKS
MONTEVIDEO     CLOUDY    73  61  64 E8        30.08F
GRANITE FALLS  CLOUDY    72  63  74 N8        30.08F
CANBY          CLOUDY    72  61  68 NE5       30.09R
MARSHALL       CLOUDY    70  62  76 N7        30.08F
REDWOOD FALLS  CLOUDY    71  62  73 N8        30.05F
OLIVIA         CLOUDY    72  61  68 N12       30.06F
PIPESTONE      MOSUNNY   73  59  60 N6        30.08S
WINDOM         PTSUNNY   70  63  78 N6        30.05F
WORTHINGTON    CLOUDY    68  61  78 N8        30.07F
JACKSON        CLOUDY    68  61  77 N10       30.06S
TRACY          CLOUDY    71  64  80 NE7       30.08S
SLAYTON        CLOUDY    71  62  74 N10       30.09R
$$
MNZ065>067-074>077-082>085-091>093-281900-
   South Central Minnesota

CITY           SKY/WX    TMP DP  RH WIND       PRES   REMARKS
MANKATO        CLOUDY    70  61  73 N8        30.04S
NEW ULM        PTSUNNY   70  63  78 N6        30.05S
ST JAMES       CLOUDY    66  59  77 N6        30.05F
FAIRMONT       CLOUDY    68  63  83 N8        30.03S
GLENCOE        PTSUNNY   72  66  81 N6        30.05S
FARIBAULT      CLOUDY    72  64  78 N7        30.03R
OWATONNA       CLOUDY    72  64  78 N8        30.01F
WASECA         CLOUDY    70  63  78 N12       30.04S
ALBERT LEA     CLOUDY    72  64  78 N6        30.01S
$$
MNZ078>079-086>088-094>096-281900-
   Southeast Minnesota

CITY           SKY/WX    TMP DP  RH WIND       PRES   REMARKS
ROCHESTER      LGT RAIN  70  68  93 N12       30.00F
6HR MIN TEMP:  66; 6HR MAX TEMP:  69; 6HR PCP:  0.03;

RED WING       CLOUDY    70  64  83 NE9G18    29.99F
STANTON        CLOUDY    72  64  78 N8        30.00S
DODGE CENTER   CLOUDY    70  66  88 N10G16    30.01S
WINONA         CLOUDY    66  63  88 N6        29.98F
AUSTIN         CLOUDY    70  63  78 NE12      30.00S
PRESTON        CLOUDY    68  64  85 N10       29.98F
$$
ABBREVIATIONS USED IN REMARKS
   TC - TEMPERATURES IN CELSIUS
  WCI - WIND CHILL INDEX
   HX - HEAT INDEX
  VSB - VISIBILITY
$$




USA.gov is the U.S. government's official web portal to all federal, state and local government web resources and services.